Yohin, Northwest Territories

7:38 AM MDT on April 23, 2017 (GMT -0600)
Yohin

Weather History for CXYH - January, 2014

Change the Weather History Date:

Saturday, January 25, 2014

  Actual Average Record
Temperature  
Mean Temperature 38 °F -  
Max Temperature 57 °F - - ()
Min Temperature 19 °F - - ()
Degree Days  
Heating Degree Days 27    
Moisture  
Dew Point 22 °F    
Average Humidity 73    
Maximum Humidity 89    
Minimum Humidity 33    
Precipitation  
Precipitation 0.00 in - - ()
Sea Level Pressure  
Sea Level Pressure 30.23 in    
Wind  
Wind Speed 3 mph ()    
Max Wind Speed 8 mph    
Max Gust Speed 32 mph    
T = Trace of Precipitation, MM = Missing Value Source: Averaged Metar Reports

Daily Weather History Graph

Daily Weather History Graph

Search for Another Location

Airport or City:

Trip Planner

Search our weather history database for the weather conditions in past years. The results will help you decide how hot, cold, wet, or windy it might be!

Date:

Astronomy

Jan. 25, 2014 Rise Set
Actual Time 9:52 AM MST 5:03 PM MST
Civil Twilight 8:59 AM MST 5:55 PM MST
Nautical Twilight 8:05 AM MST 6:49 PM MST
Astronomical Twilight 7:14 AM MST 7:41 PM MST
Moon 4:24 AM MST (1/25) 12:10 PM MST (1/25)
Length of Visible Light 8h 55m
Length of Day
7h 11m
Waning Crescent, 33% of the Moon is Illuminated
Jan 25
Waning Crescent
Jan 30
New
Feb 6
First Quarter
Feb 14
Full
Feb 22
Last Quarter

Hourly Weather History & Observations

Time (MST) Temp. Windchill Dew Point Humidity Pressure Visibility Wind Dir Wind Speed Gust Speed Precip Events Conditions
12:00 AM 57.2 °F - 28.2 °F 33% 29.78 in - WNW 6.9 mph - N/A   Unknown
1:00 AM 56.8 °F - 28.4 °F 34% 29.78 in - WSW 6.9 mph 32.2 mph N/A   Unknown
2:00 AM 57.0 °F - 28.4 °F 34% 29.81 in - West 8.1 mph 19.6 mph N/A   Unknown
3:00 AM 55.8 °F - 28.9 °F 36% 29.84 in - West 5.8 mph - N/A   Unknown
4:00 AM 26.6 °F 18.2 °F 20.1 °F 77% 29.92 in - NNE 8.1 mph - N/A   Unknown
5:00 AM 27 °F - 21 °F 70% 29.99 in - SE 1.2 mph - -  
5:00 AM 27.0 °F - 21.2 °F 79% 29.99 in - SE 1.2 mph - N/A   Unknown
6:00 AM 25.0 °F - 19.2 °F 79% 30.06 in - NNE 1.2 mph - N/A   Unknown
7:00 AM 21.7 °F - 18.1 °F 86% 30.12 in - East 1.2 mph - N/A   Unknown
8:00 AM 19.9 °F - 17.2 °F 89% 30.16 in - Calm Calm - N/A   Unknown
9:00 AM 23.2 °F - 19.4 °F 85% 30.18 in - Calm Calm - N/A   Unknown
10:00 AM 25.3 °F - 20.1 °F 81% 30.20 in - Calm Calm - N/A   Unknown
11:00 AM 27 °F - 21 °F 71% 30.20 in - NE 1.2 mph - -  
11:00 AM 27.3 °F - 21.4 °F 78% 30.20 in - NE 1.2 mph - N/A   Unknown
12:00 PM 28.8 °F - 22.8 °F 78% 30.22 in - ESE 1.2 mph - N/A   Unknown
1:00 PM 30.0 °F - 25.7 °F 84% 30.25 in - Calm Calm - N/A   Unknown
2:00 PM 31.6 °F - 25.5 °F 78% 30.28 in - ENE 1.2 mph - N/A   Unknown
3:00 PM 30.9 °F - 25.0 °F 79% 30.32 in - NE 1.2 mph - N/A   Unknown
4:00 PM 29.7 °F 24.7 °F 24.4 °F 81% 30.38 in - NE 4.6 mph - N/A   Unknown
5:00 PM 29 °F - 23 °F 71% 30.43 in - NE 3.5 mph - -  
5:00 PM 29.1 °F 25.4 °F 23.4 °F 79% 30.43 in - NE 3.5 mph - N/A   Unknown
6:00 PM 28.6 °F 21.5 °F 22.5 °F 78% 30.48 in - NE 6.9 mph - N/A   Unknown
7:00 PM 27.5 °F 22.2 °F 21.0 °F 77% 30.53 in - NE 4.6 mph - N/A   Unknown
8:00 PM 26.2 °F 20.7 °F 20.1 °F 78% 30.56 in - ENE 4.6 mph - N/A   Unknown
9:00 PM 24.8 °F 19.1 °F 19.2 °F 79% 30.58 in - ENE 4.6 mph - N/A   Unknown
10:00 PM 23.2 °F - 17.8 °F 80% 30.58 in - ENE 2.3 mph - N/A   Unknown
11:00 PM 22 °F - 19 °F 83% 30.60 in - South 2.3 mph - -  
11:00 PM 23.9 °F - 19.0 °F 82% 30.60 in - South 2.3 mph - N/A   Unknown